[[{"header":{"parameterUnit":"m.s-1","parameterCategory":1,"la1":30.2991,"la2":30.254,"lo1":-89.0895,"lo2":-89.0444,"dy":0.0017,"dx":0.0017,"nx":28,"ny":28,"refTime":"2023-08-20T03:00:00:Z","depth":0,"parameterNumber":2,"parameterNumberName":"U-component_of_WINDS"},"data":[0,0,0,0,0,0,0,0,0,0,0,0,0,0,0,0,0,0,0,0,0,0,0,0,0,0,0,0,0,0,0,0,0,0,0,0,0,0,0,0,0,0,0,0,0,0,0,0,0,0,0,0,0,0,0,0,0,0,-1.1157,-1.1158,0,-1.1253,-1.1254,-1.1255,-1.1295,-1.1295,-1.1294,-1.1294,-1.1392,-1.1395,-1.1398,0,0,0,0,0,0,0,0,0,0,0,0,0,-1.1009,-1.1011,-1.1157,-1.1158,-1.1159,-1.1253,-1.1254,-1.1255,-1.1295,-1.1295,-1.1294,-1.1294,-1.1392,-1.1395,-1.1398,0,0,0,0,0,0,0,0,0,0,0,0,0,-1.1086,-1.1012,-1.1157,-1.119,-1.1194,-1.1253,-1.1254,-1.1256,-1.1295,-1.1295,-1.1294,-1.1294,-1.139,-1.1395,-1.1399,-1.1431,0,0,-1.1412,-1.1413,0,0,0,0,0,0,0,0,-1.1081,-1.1091,-1.1184,-1.1188,-1.1193,-1.1262,-1.1238,-1.1314,-1.1295,-1.1257,-1.1294,-1.1294,-1.1349,-1.1357,-1.1375,-1.1435,-1.144,-1.1412,-1.1414,-1.1416,-1.1417,0,0,0,0,0,0,0,-1.1076,-1.1087,-1.1195,-1.1185,-1.1191,-1.1201,-1.1212,-1.1253,-1.1303,-1.126,-1.1263,-1.1274,-1.1351,-1.1371,-1.1378,-1.1441,-1.1412,-1.1416,-1.1418,-1.142,-1.1534,-1.1535,0,0,0,0,0,0,-1.1065,-1.1083,-1.1192,-1.1198,-1.1135,-1.1204,-1.1216,-1.124,-1.1303,-1.1313,-1.1274,-1.1275,-1.1364,-1.1373,-1.1382,-1.1425,-1.1416,-1.142,-1.1423,-1.1534,-1.1534,-1.1535,0,0,0,0,0,0,-1.1062,-1.1075,-1.1188,-1.1141,-1.1156,-1.1207,-1.1233,-1.1242,-1.1262,-1.1314,-1.1323,-1.1285,-1.1364,-1.1376,-1.1419,-1.1429,-1.1422,-1.1426,-1.1533,-1.1534,-1.1535,-1.151,0,0,0,0,0,0,-1.1057,-1.1073,-1.1085,-1.1141,-1.1159,-1.1223,-1.1234,-1.1244,-1.1269,-1.1272,-1.1326,-1.1335,-1.1365,-1.1412,-1.1423,-1.1434,-1.1429,-1.1532,-1.1533,-1.1534,-1.151,-1.151,-1.1509,0,0,0,0,0,-1.1052,-1.1074,-1.1086,-1.1099,-1.1175,-1.1223,-1.1234,-1.1267,-1.1269,-1.1283,-1.1316,-1.1334,-1.1426,-1.1416,-1.1429,-1.1441,-1.1532,-1.1533,-1.1534,-1.151,-1.151,-1.1509,0,0,0,0,0,0,-1.1017,-1.1082,-1.1096,-1.1136,-1.1174,-1.123,-1.1247,-1.1266,-1.1303,-1.1304,-1.1345,-1.1357,-1.1397,-1.1423,-1.1412,-1.1477,-1.148,-1.1484,-1.1458,-1.1458,-1.1457,-1.145,-1.1433,0,0,0,0,0,-1.1015,-1.1048,-1.1103,-1.1134,-1.1152,-1.1196,-1.1219,-1.1242,-1.1282,-1.1299,-1.1335,-1.1374,-1.1413,-1.1437,-1.1474,-1.1514,-1.1527,-1.1529,-1.1529,-1.1528,-1.1531,-1.1556,-1.1557,-1.1539,-1.1539,-1.1539,0,0,-1.1009,-1.1048,-1.1067,-1.1128,-1.116,-1.1194,-1.121,-1.1245,-1.1271,-1.1304,-1.1347,-1.1376,-1.1422,-1.1464,-1.1484,-1.1487,-1.1539,-1.153,-1.1529,-1.1532,-1.1557,-1.1559,-1.156,-1.1539,-1.1539,-1.1539,0,0,-1.1017,-1.1049,-1.1079,-1.1112,-1.116,-1.119,-1.1197,-1.1251,-1.1271,-1.1315,-1.1341,-1.1373,-1.1437,-1.147,-1.1495,-1.1517,-1.1534,-1.1528,-1.1526,-1.155,-1.1551,-1.1553,-1.1561,-1.1564,-1.153,-1.153,-1.153,0,-1.1003,-1.1056,-1.1092,-1.1127,-1.1153,-1.1185,-1.1217,-1.1246,-1.1304,-1.1322,-1.1325,-1.1408,-1.1441,-1.1492,-1.1497,-1.1516,-1.1526,-1.1521,-1.1548,-1.155,-1.1552,-1.1561,-1.1564,-1.1529,-1.1529,-1.1529,-1.153,0,-1.1038,-1.1075,-1.1093,-1.1149,-1.1178,-1.121,-1.1252,-1.1277,-1.1298,-1.1327,-1.1373,-1.1414,-1.1462,-1.1476,-1.1496,-1.153,-1.153,-1.154,-1.1544,-1.1552,-1.1561,-1.1564,-1.1528,-1.1528,-1.1528,-1.1529,0,0,-1.1025,-1.1103,-1.1109,-1.1135,-1.1192,-1.1221,-1.1256,-1.1303,-1.1324,-1.1363,-1.1394,-1.1449,-1.1459,-1.1487,-1.1512,-1.1532,-1.1548,-1.154,-1.1541,-1.154,-1.159,-1.1582,-1.1585,-1.1561,-1.1561,-1.1562,-1.1586,0,-1.1041,-1.1105,-1.1139,-1.1188,-1.1223,-1.1255,-1.1285,-1.1324,-1.1353,-1.1387,-1.1419,-1.1458,-1.1467,-1.1485,-1.1507,-1.1542,-1.1559,-1.154,-1.159,-1.1591,-1.1578,-1.159,-1.1582,-1.1602,-1.159,-1.159,-1.1591,0,-1.1067,-1.1107,-1.116,-1.1215,-1.1231,-1.1257,-1.1304,-1.1336,-1.1381,-1.1401,-1.1433,-1.1458,-1.1497,-1.1499,-1.1553,-1.154,-1.1563,-1.1583,-1.1585,-1.1591,-1.1591,-1.1597,-1.1609,-1.1613,-1.1596,-1.1596,-1.1595,0,-1.1054,-1.1121,-1.1161,-1.1183,-1.1247,-1.1266,-1.1293,-1.1338,-1.1365,-1.1406,-1.1423,-1.1468,-1.1493,-1.1527,-1.1564,-1.1561,-1.1615,-1.162,-1.1633,-1.1632,-1.1643,-1.1642,-1.166,-1.1657,-1.1657,-1.1657,-1.1657,0,-1.1068,-1.1099,-1.1156,-1.1181,-1.1218,-1.1258,-1.1293,-1.1323,-1.1363,-1.1395,-1.1425,-1.1455,-1.1501,-1.1537,-1.1566,-1.1607,-1.1618,-1.1635,-1.1643,-1.1633,-1.1631,-1.1648,-1.1648,-1.1658,-1.1657,-1.1657,-1.1657,0,-1.1058,-1.1098,-1.1145,-1.1202,-1.1218,-1.1242,-1.1292,-1.1318,-1.1349,-1.1389,-1.1401,-1.145,-1.1494,-1.1534,-1.1591,-1.1611,-1.1653,-1.1662,-1.1638,-1.1642,-1.1654,-1.1652,-1.1684,-1.1691,-1.1682,-1.1682,-1.1682,0,-1.1065,-1.109,-1.115,-1.1174,-1.1201,-1.1239,-1.1267,-1.1307,-1.1335,-1.1389,-1.1409,-1.1455,-1.1494,-1.1562,-1.1603,-1.1648,-1.1659,-1.1667,-1.1666,-1.1655,-1.166,-1.1658,-1.1661,-1.1666,-1.1666,-1.1666,-1.1666,0,-1.1072,-1.1091,-1.1129,-1.1175,-1.1207,-1.1246,-1.1285,-1.1302,-1.1351,-1.138,-1.1426,-1.1456,-1.1516,-1.1561,-1.1611,-1.164,-1.1662,-1.1666,-1.1672,-1.1662,-1.1647,-1.1656,-1.1637,-1.1665,-1.1665,-1.1665,-1.1665,-1.1665,-1.1071,-1.1096,-1.1142,-1.1185,-1.1219,-1.1255,-1.1283,-1.1318,-1.1356,-1.1408,-1.143,-1.1476,-1.1523,-1.1592,-1.1621,-1.1658,-1.1663,-1.167,-1.1673,-1.1674,-1.1673,-1.1641,-1.1667,-1.1667,-1.1668,-1.1668,-1.1668,0,-1.1081,-1.1113,-1.1152,-1.1206,-1.1239,-1.1257,-1.1302,-1.1329,-1.1369,-1.141,-1.1448,-1.1501,-1.1546,-1.1591,-1.1639,-1.166,-1.1671,-1.1671,-1.167,-1.1677,-1.1665,-1.1656,-1.1661,-1.1661,-1.1661,-1.1661,-1.1661,-1.1661,-1.109,-1.1132,-1.1157,-1.1217,-1.1249,-1.1294,-1.1319,-1.1353,-1.1386,-1.1444,-1.1481,-1.1511,-1.1554,-1.1605,-1.1648,-1.166,-1.1676,-1.1674,-1.1689,-1.1677,-1.1677,-1.1677,-1.1669,-1.1677,-1.1677,-1.1697,-1.1697,-1.1697]},{"header":{"parameterUnit":"m.s-1","parameterCategory":1,"la1":30.2991,"la2":30.254,"lo1":-89.0895,"lo2":-89.0444,"dy":0.0017,"dx":0.0017,"nx":28,"ny":28,"refTime":"2023-08-20T03:00:00:Z","depth":0,"parameterNumber":3,"parameterNumberName":"V-component_of_WINDS"},"data":[0,0,0,0,0,0,0,0,0,0,0,0,0,0,0,0,0,0,0,0,0,0,0,0,0,0,0,0,0,0,0,0,0,0,0,0,0,0,0,0,0,0,0,0,0,0,0,0,0,0,0,0,0,0,0,0,0,0,1.4036,1.4036,0,1.396,1.3959,1.3958,1.3914,1.3913,1.3913,1.3913,1.3828,1.3826,1.3823,0,0,0,0,0,0,0,0,0,0,0,0,0,1.4137,1.4136,1.4037,1.4036,1.4035,1.396,1.3959,1.3958,1.3914,1.3913,1.3913,1.3913,1.3828,1.3826,1.3823,0,0,0,0,0,0,0,0,0,0,0,0,0,1.408,1.4135,1.4037,1.4004,1.4,1.396,1.3959,1.3958,1.3914,1.3913,1.3913,1.3913,1.3829,1.3826,1.3823,1.3808,0,0,1.3813,1.3812,0,0,0,0,0,0,0,0,1.4083,1.4076,1.4009,1.4006,1.4002,1.3946,1.3963,1.3907,1.3914,1.3946,1.3913,1.3913,1.3867,1.386,1.3846,1.3804,1.38,1.3813,1.3811,1.381,1.3809,0,0,0,0,0,0,0,1.4087,1.4079,1.4006,1.4009,1.4004,1.399,1.3982,1.3952,1.3908,1.3943,1.394,1.3932,1.3865,1.385,1.3844,1.3799,1.3813,1.381,1.3808,1.3807,1.3738,1.3739,0,0,0,0,0,0,1.4098,1.4083,1.4008,1.4004,1.4043,1.3989,1.3979,1.3964,1.3909,1.39,1.3932,1.393,1.3855,1.3848,1.3841,1.3819,1.381,1.3807,1.3805,1.3738,1.3739,1.3739,0,0,0,0,0,0,1.41,1.4091,1.4011,1.4042,1.4031,1.3987,1.397,1.3963,1.3948,1.39,1.3892,1.3926,1.3855,1.3845,1.3817,1.3815,1.3805,1.3802,1.3738,1.3738,1.3739,1.3775,0,0,0,0,0,0,1.4103,1.4093,1.4088,1.4043,1.403,1.3991,1.397,1.3961,1.3943,1.394,1.3892,1.3884,1.3854,1.3822,1.3813,1.3811,1.38,1.3738,1.3738,1.3739,1.3774,1.3777,1.3779,0,0,0,0,0,1.4107,1.41,1.4088,1.4079,1.4024,1.3991,1.3983,1.3951,1.3944,1.3937,1.3907,1.3885,1.3817,1.3819,1.3809,1.3806,1.3738,1.3738,1.3738,1.3773,1.3776,1.3779,0,0,0,0,0,0,1.4144,1.4094,1.408,1.4059,1.403,1.3984,1.3975,1.3956,1.3927,1.3924,1.3884,1.3873,1.3848,1.3824,1.3827,1.3787,1.3775,1.3773,1.3804,1.3807,1.3809,1.3815,1.3797,0,0,0,0,0,1.415,1.413,1.4086,1.4072,1.4058,1.4019,1.4004,1.3982,1.3949,1.3936,1.3903,1.387,1.3841,1.3823,1.3794,1.377,1.3758,1.3763,1.3765,1.3768,1.3766,1.3751,1.3752,1.3739,1.3739,1.3739,0,0,1.4162,1.4132,1.4121,1.4078,1.4053,1.4031,1.4009,1.3987,1.3969,1.3932,1.3903,1.3878,1.3838,1.3812,1.3799,1.3791,1.3767,1.3768,1.377,1.3767,1.3751,1.3752,1.3753,1.374,1.3739,1.3739,0,0,1.4172,1.4148,1.4133,1.4109,1.4072,1.4046,1.4043,1.3999,1.3982,1.3953,1.3924,1.3901,1.3853,1.3826,1.3805,1.3805,1.3783,1.3796,1.3809,1.3794,1.3795,1.3796,1.3794,1.3794,1.3795,1.3795,1.3795,0,1.419,1.4158,1.4127,1.4107,1.4088,1.4055,1.4038,1.4016,1.397,1.3957,1.395,1.3888,1.3859,1.3825,1.3825,1.381,1.3803,1.3801,1.3798,1.3798,1.3798,1.3796,1.3796,1.3797,1.3797,1.3797,1.3797,0,1.4182,1.416,1.4152,1.4111,1.4092,1.4073,1.4037,1.402,1.4,1.3974,1.3944,1.3908,1.3871,1.3861,1.384,1.3824,1.3821,1.3806,1.3793,1.3802,1.3799,1.3798,1.38,1.3799,1.3799,1.3798,0,0,1.4213,1.4156,1.4153,1.4134,1.4091,1.4072,1.4051,1.4017,1.4003,1.3972,1.3952,1.3912,1.3898,1.3875,1.3851,1.3838,1.3839,1.3825,1.3823,1.3828,1.3817,1.3827,1.3827,1.3824,1.3824,1.3824,1.382,0,1.4215,1.4179,1.415,1.4123,1.4101,1.407,1.4051,1.4022,1.3997,1.3973,1.3944,1.3916,1.3901,1.3887,1.3873,1.3842,1.3836,1.3842,1.3803,1.3802,1.3813,1.3826,1.3837,1.3835,1.3819,1.3818,1.3818,0,1.4214,1.4187,1.4159,1.4118,1.4107,1.4091,1.4057,1.4035,1.4,1.3983,1.3958,1.3933,1.3906,1.3896,1.3858,1.3863,1.3845,1.3827,1.3826,1.382,1.381,1.3819,1.3833,1.3833,1.3817,1.3817,1.3817,0,1.4237,1.4194,1.4171,1.4156,1.4108,1.4097,1.4076,1.4041,1.4022,1.3991,1.3978,1.3944,1.3925,1.3898,1.3863,1.386,1.3828,1.3816,1.3811,1.3812,1.3805,1.3806,1.3816,1.3796,1.3796,1.3796,1.3796,0,1.4243,1.4226,1.4181,1.4167,1.4147,1.4113,1.4094,1.4069,1.4038,1.4017,1.3987,1.3968,1.3924,1.3898,1.3871,1.3843,1.3834,1.3818,1.381,1.382,1.3822,1.3807,1.3806,1.3796,1.3796,1.3796,1.3796,0,1.4266,1.4235,1.4208,1.4165,1.4154,1.4141,1.4103,1.4087,1.4061,1.4034,1.4026,1.3984,1.3952,1.3916,1.3871,1.3852,1.3826,1.3816,1.3839,1.3834,1.3832,1.3832,1.3831,1.3828,1.3812,1.3812,1.3812,0,1.4271,1.4258,1.4214,1.4199,1.418,1.4155,1.4136,1.4102,1.4083,1.4042,1.403,1.3997,1.3968,1.3918,1.3882,1.3847,1.3835,1.3837,1.3829,1.3839,1.3833,1.3834,1.3832,1.3839,1.3839,1.384,1.384,0,1.4282,1.4268,1.4243,1.4213,1.4192,1.4166,1.4138,1.4127,1.4087,1.4066,1.4035,1.4013,1.3968,1.3934,1.3895,1.387,1.3847,1.3843,1.384,1.3849,1.3862,1.3854,1.3843,1.3843,1.3842,1.3842,1.3842,1.3842,1.4295,1.4282,1.425,1.4223,1.4199,1.4174,1.4157,1.4129,1.4103,1.4066,1.4047,1.4015,1.3978,1.3924,1.39,1.3873,1.3865,1.3861,1.386,1.3859,1.3861,1.3868,1.3865,1.3865,1.3865,1.3865,1.3865,0,1.4304,1.4282,1.4258,1.4222,1.42,1.4184,1.4152,1.4134,1.4108,1.4077,1.405,1.4013,1.398,1.3942,1.3906,1.3891,1.3879,1.3882,1.3882,1.3877,1.387,1.3876,1.3892,1.3892,1.3892,1.3892,1.3892,1.3892,1.4307,1.4283,1.4265,1.4228,1.4205,1.4176,1.416,1.4136,1.4111,1.4072,1.4045,1.4022,1.3987,1.3948,1.3917,1.3906,1.3893,1.3899,1.3885,1.388,1.3877,1.3875,1.3881,1.3897,1.3897,1.3894,1.3894,1.3894]}]]